TimeEDT,TemperatureF,Dew PointF,Humidity,Sea Level PressureIn,VisibilityMPH,Wind Direction,Wind SpeedMPH,Gust SpeedMPH,PrecipitationIn,Events,Conditions,WindDirDegrees,DateUTC
12:53 AM,37.0,30.9,79,29.68,10.0,West,15.0,21.9,N/A,,Overcast,260,2013-03-12 04:53:00
1:53 AM,36.0,30.9,82,29.70,10.0,WSW,15.0,23.0,0.00,,Overcast,240,2013-03-12 05:53:00
2:09 AM,35.6,30.2,81,29.68,10.0,WSW,12.7,-,N/A,,Overcast,240,2013-03-12 06:09:00
2:26 AM,35.6,30.2,81,29.69,10.0,WSW,15.0,23.0,N/A,,Overcast,250,2013-03-12 06:26:00
2:53 AM,36.0,30.9,82,29.71,10.0,WSW,16.1,23.0,N/A,,Overcast,240,2013-03-12 06:53:00
3:28 AM,35.6,30.2,81,29.70,10.0,WSW,13.8,21.9,N/A,,Overcast,240,2013-03-12 07:28:00
3:53 AM,36.0,30.9,82,29.71,10.0,WSW,12.7,19.6,N/A,,Overcast,240,2013-03-12 07:53:00
4:21 AM,35.6,30.2,81,29.70,10.0,WSW,11.5,-,N/A,,Overcast,240,2013-03-12 08:21:00
4:33 AM,35.6,30.2,81,29.70,10.0,WSW,12.7,-,N/A,,Overcast,240,2013-03-12 08:33:00
4:53 AM,35.1,30.0,82,29.72,10.0,SW,10.4,-,N/A,,Overcast,230,2013-03-12 08:53:00
5:53 AM,35.1,30.0,82,29.73,10.0,WSW,13.8,18.4,N/A,,Overcast,240,2013-03-12 09:53:00
6:53 AM,35.1,30.0,82,29.76,10.0,SW,11.5,-,N/A,,Overcast,230,2013-03-12 10:53:00
7:53 AM,34.0,28.0,79,29.78,10.0,West,10.4,-,0.00,,Overcast,260,2013-03-12 11:53:00
8:53 AM,34.0,27.0,75,29.80,10.0,West,12.7,-,N/A,,Overcast,260,2013-03-12 12:53:00
9:53 AM,34.0,27.0,75,29.82,9.0,West,15.0,19.6,0.00,Snow,Light Snow,260,2013-03-12 13:53:00
10:53 AM,34.0,27.0,75,29.83,10.0,West,16.1,19.6,0.00,,Overcast,260,2013-03-12 14:53:00
11:13 AM,33.8,26.6,75,29.81,7.0,West,13.8,-,0.00,Snow,Light Snow,260,2013-03-12 15:13:00
11:53 AM,36.0,26.1,67,29.84,10.0,West,12.7,-,0.00,,Overcast,260,2013-03-12 15:53:00
12:23 PM,35.6,26.6,70,29.82,10.0,West,10.4,-,N/A,,Overcast,260,2013-03-12 16:23:00
12:53 PM,39.0,26.1,60,29.84,10.0,WSW,19.6,25.3,N/A,,Overcast,250,2013-03-12 16:53:00
1:53 PM,36.0,28.0,73,29.85,6.0,West,9.2,-,0.00,Snow,Light Snow,270,2013-03-12 17:53:00
2:53 PM,37.9,26.1,62,29.84,10.0,West,15.0,20.7,0.00,,Overcast,270,2013-03-12 18:53:00
3:53 PM,36.0,24.1,62,29.84,10.0,WSW,10.4,-,N/A,,Overcast,250,2013-03-12 19:53:00
4:19 PM,35.6,26.6,70,29.82,9.0,WSW,9.2,-,0.00,,Overcast,250,2013-03-12 20:19:00
4:43 PM,35.6,26.6,70,29.83,8.0,WSW,11.5,19.6,0.00,Snow,Light Snow,250,2013-03-12 20:43:00
4:53 PM,35.1,26.1,70,29.86,7.0,West,10.4,-,0.00,Snow,Light Snow,260,2013-03-12 20:53:00
5:53 PM,34.0,26.1,73,29.87,9.0,West,12.7,23.0,0.00,,Overcast,260,2013-03-12 21:53:00
6:06 PM,33.8,26.6,75,29.85,10.0,WSW,8.1,-,N/A,,Overcast,250,2013-03-12 22:06:00
6:38 PM,33.8,24.8,70,29.85,4.0,WSW,17.3,24.2,0.00,Snow,Light Snow,250,2013-03-12 22:38:00
6:53 PM,34.0,25.0,70,29.89,10.0,WSW,10.4,-,0.00,,Overcast,250,2013-03-12 22:53:00
7:53 PM,33.1,21.9,64,29.90,10.0,WSW,9.2,-,0.00,,Overcast,250,2013-03-12 23:53:00
8:53 PM,32.0,24.1,73,29.91,7.0,WSW,9.2,-,0.00,Snow,Light Snow,240,2013-03-13 00:53:00
9:27 PM,32.0,24.8,75,29.88,10.0,WSW,9.2,-,0.00,,Overcast,250,2013-03-13 01:27:00
9:53 PM,30.9,24.1,76,29.91,10.0,WSW,5.8,-,0.00,,Mostly Cloudy,240,2013-03-13 01:53:00
10:53 PM,30.9,23.0,72,29.91,10.0,WSW,10.4,-,N/A,,Overcast,250,2013-03-13 02:53:00
11:05 PM,30.2,23.0,75,29.88,10.0,West,5.8,-,N/A,,Overcast,260,2013-03-13 03:05:00
11:21 PM,30.2,23.0,75,29.88,10.0,WSW,5.8,-,N/A,,Overcast,250,2013-03-13 03:21:00
11:53 PM,30.9,23.0,72,29.90,10.0,WSW,4.6,-,N/A,,Overcast,240,2013-03-13 03:53:00